Location: Aula-Vintri
(58.3875°N, 22.4322°E)
Time: 03:33:41
(UTC+00:00)

GEOS 3 Rocket - Pass Details

Date: 13 October 2019
Orbit: 788 x 832 km, 115.0° (Epoch: 18 November)

Event Time Altitude Azimuth Distance (km) Brightness Sun altitude
Exits shadow 16:02:13 - 69° (ENE) 2,816 5.8 -4.8°
Reaches altitude 10° 16:03:22 10° 65° (ENE) 2,374 5.4 -4.9°
Maximum altitude 16:08:11 42° 356° (N) 1,132 4.4 -5.6°
Drops below altitude 10° 16:13:02 10° 287° (WNW) 2,397 7.4 -6.2°
Sets 16:15:26 0° 281° (W) 3,335 8.6 -6.5°
